This is the latest recevied weather packets stored in our database for station/object K8WEH. If no packets are shown the sender has not sent any weather packets the latest 10 day(s).
| Time | Temp. | Humidity | Pressure | Rain* | Wind** | Luminosity | Snow |
|---|---|---|---|---|---|---|---|
| 1788607833 | 21.67° C | 25% | 1016.3 hPa | 0 mm | - | - | - |
| 1788607532 | 21.67° C | 19% | 1016.1 hPa | 0 mm | - | - | - |
| 1788607233 | 21.67° C | 16% | 1015.8 hPa | 0 mm | - | - | - |
| 1788606931 | 21.67° C | 12% | 1015.8 hPa | 0 mm | - | - | - |
| 1788606631 | 21.67° C | 10% | 1015.7 hPa | 0 mm | - | - | - |
| 1788606330 | 21.67° C | 9% | 1015.2 hPa | 0 mm | - | - | - |
| 1788606030 | 21.67° C | 9% | 1015.1 hPa | 0 mm | - | - | - |
| 1788605730 | 21.67° C | 9% | 1015.4 hPa | 0 mm | - | - | - |
| 1788605428 | 21.67° C | 8% | 1014 hPa | 0 mm | - | - | - |
| 1788605135 | 21.67° C | 9% | 1013.7 hPa | 0 mm | - | - | - |
| 1788604828 | 21.67° C | 9% | 1014.1 hPa | 0 mm | - | - | - |
| 1788604529 | 21.67° C | 9% | 1014.1 hPa | 0 mm | - | - | - |
| 1788604228 | 21.67° C | 9% | 1014.1 hPa | 0 mm | - | - | - |
| 1788603927 | 21.67° C | 9% | 1014 hPa | 0 mm | - | - | - |
| 1788603627 | 21.11° C | 10% | 1014.1 hPa | 0 mm | - | - | - |
| 1788603327 | 21.11° C | 10% | 1014.1 hPa | 0 mm | - | - | - |
| 1788603049 | 21.11° C | 11% | 1014.1 hPa | 0 mm | - | - | - |
| 1788602726 | 21.11° C | 11% | 1014.2 hPa | 0 mm | - | - | - |
| 1788602427 | 21.11° C | 11% | 1014.2 hPa | 0 mm | - | - | - |
| 1788602128 | 21.11° C | 11% | 1014.1 hPa | 0 mm | - | - | - |
| 1788601826 | 21.11° C | 12% | 1014.1 hPa | 0 mm | - | - | - |
| 1788601526 | 21.11° C | 12% | 1014 hPa | 0 mm | - | - | - |
| 1788601225 | 21.11° C | 12% | 1014 hPa | 0 mm | - | - | - |
| 1788600925 | 21.11° C | 12% | 1014.1 hPa | 0 mm | - | - | - |
| 1788600625 | 21.11° C | 12% | 1014 hPa | 0 mm | - | - | - |
* Rain latest hour (hover to see other rain measurements)
** Current wind speed in m/s (hover to see current wind gust speed)